DW8397 Weather Reports


time (UTC)temp
C
wind
direction
speed
KPH
gust
KPH
rain 1hr
cm
rain 24hr
cm
rain mn
cm
humidity
%
barometer
mb
20260906064551 12 165 0.0 0.0 0.03 0.15 0.10 88 1012.5
20260906063046 12 165 0.0 0.0 0.05 0.15 0.10 88 1012.5
20260906061545 12 165 0.0 0.0 0.03 0.13 0.08 88 1012.5
20260906060044 12 165 0.0 0.0 0.05 0.13 0.08 88 1012.6
20260906054557 13 165 0.0 0.0 0.08 0.13 0.08 88 1012.7
20260906053042 13 165 0.0 0.0 0.05 0.10 0.05 89 1012.7
20260906051602 13 165 0.0 0.0 0.05 0.10 0.05 89 1012.7
20260906050044 13 165 0.0 0.0 0.00 0.05 0.00 89 1012.8
20260906044548 13 165 0.0 0.0 0.00 0.05 0.00 89 1012.8
20260906043038 13 165 0.0 0.0 0.00 0.05 0.00 89 1012.8
20260906041537 13 165 0.0 0.0 0.00 0.05 0.00 89 1012.7
20260906034533 13 196 0.0 0.0 0.03 0.05 0.05 89 1012.8
20260906033044 13 196 0.0 0.0 0.05 0.05 0.05 89 1012.7
20260906031530 14 191 0.0 0.0 0.05 0.05 0.05 89 1012.6
20260906030029 14 138 0.0 0.0 0.03 0.03 0.03 89 1012.3
20260906024527 15 199 0.0 14.5 0.03 0.03 0.03 88 1012.0
20260906023026 15 143 0.0 16.1 0.00 0.00 0.00 88 1012.2
20260906021526 16 65 3.2 16.1 0.00 0.00 0.00 87 1012.0
20260906020025 16 334 0.0 9.7 0.00 0.00 0.00 87 1011.8
20260906014528 16 30 3.2 14.5 0.00 0.00 0.00 87 1011.7
20260906013028 16 26 3.2 16.1 0.00 0.00 0.00 87 1011.8
20260906011524 16 65 0.0 1.6 0.00 0.00 0.00 88 1011.9
20260906010023 16 355 0.0 0.0 0.00 0.00 0.00 88 1011.8
20260906004521 17 355 0.0 0.0 0.00 0.00 0.00 87 1011.7
20260906003020 17 13 0.0 0.0 0.00 0.00 0.00 87 1011.4
20260906001518 17 329 0.0 9.7 0.00 0.00 0.00 87 1011.3
20260906000019 17 20 0.0 11.3 0.00 0.00 0.00 87 1011.3
20260905234518 17 5 1.6 11.3 0.00 0.00 0.00 86 1011.1
20260905233014 17 333 0.0 0.0 0.00 0.00 0.00 85 1010.9
20260905231518 17 314 0.0 0.0 0.00 0.00 0.00 85 1010.7
20260905230012 17 16 3.2 17.7 0.00 0.00 0.00 84 1010.7
20260905224523 18 323 1.6 11.3 0.00 0.00 0.00 83 1010.5
20260905223010 18 323 0.0 9.7 0.00 0.00 0.00 82 1010.4
20260905221509 18 311 0.0 14.5 0.00 0.00 0.00 81 1010.3
20260905220009 18 61 1.6 9.7 0.00 0.00 0.00 81 1010.4
20260905214508 19 5 6.4 20.9 0.00 0.00 0.00 79 1010.3
20260905213006 19 360 4.8 16.1 0.00 0.00 0.00 79 1010.2
20260905211513 19 21 0.0 16.1 0.00 0.00 0.00 80 1010.0
20260905210007 19 32 9.7 17.7 0.00 0.00 0.00 78 1010.0
20260905204505 19 340 8.0 20.9 0.00 0.00 0.00 78 1010.0
20260905203004 19 338 3.2 11.3 0.00 0.00 0.00 80 1009.7
20260905201504 19 304 3.2 17.7 0.00 0.00 0.00 79 1009.7
20260905200009 20 309 6.4 17.7 0.00 0.00 0.00 78 1009.5
20260905194502 20 306 6.4 16.1 0.00 0.00 0.00 79 1009.7
20260905193002 20 24 1.6 12.9 0.00 0.00 0.00 78 1009.7
20260905191502 20 30 3.2 9.7 0.00 0.00 0.00 78 1009.7
20260905190104 20 330 3.2 14.5 0.00 0.00 0.00 79 1009.7
20260905184600 19 266 0.0 12.9 0.00 0.00 0.00 80 1009.6
20260905183056 20 300 1.6 20.9 0.00 0.00 0.00 78 1009.6
20260905181556 19 321 0.0 14.5 0.00 0.00 0.00 80 1009.5
20260905180103 19 287 4.8 12.9 0.00 0.00 0.00 81 1009.6
20260905174555 19 313 3.2 14.5 0.00 0.00 0.00 80 1009.7
20260905173111 20 350 4.8 12.9 0.00 0.00 0.00 78 1009.7
20260905171554 20 25 0.0 9.7 0.00 0.00 0.00 80 1009.6
20260905170108 18 314 1.6 11.3 0.00 0.00 0.00 79 1009.6
20260905164600 19 355 3.2 14.5 0.00 0.00 0.00 78 1009.6
20260905163050 19 5 6.4 14.5 0.00 0.00 0.00 79 1009.6
20260905161604 19 325 3.2 12.9 0.00 0.00 0.00 80 1009.6
20260905160049 19 355 1.6 17.7 0.00 0.00 0.00 79 1009.8
20260905154548 19 317 4.8 16.1 0.00 0.00 0.00 81 1009.8
20260905153045 18 333 0.0 14.5 0.00 0.00 0.00 80 1009.8
20260905151545 18 350 0.0 6.4 0.00 0.00 0.00 79 1009.8
20260905150044 18 317 0.0 0.0 0.00 0.00 0.00 79 1009.7
20260905144542 18 340 0.0 0.0 0.00 0.00 0.00 80 1009.7
20260905143040 18 24 0.0 0.0 0.00 0.00 0.00 82 1009.7
20260905141537 17 318 0.0 1.6 0.00 0.00 0.00 83 1009.9
20260905140037 18 38 0.0 14.5 0.00 0.00 0.00 85 1009.9
20260905134535 17 306 0.0 12.9 0.00 0.00 0.00 86 1009.9
20260905133036 17 334 0.0 8.0 0.00 0.00 0.00 86 1009.9
20260905131529 17 349 1.6 11.3 0.00 0.00 0.00 87 1009.8
20260905130029 17 298 0.0 11.3 0.00 0.00 0.00 87 1009.7
20260905124524 16 355 0.0 0.0 0.00 0.00 0.00 88 1009.6
20260905123023 16 321 0.0 0.0 0.00 0.00 0.00 88 1009.5
20260905121523 15 360 0.0 0.0 0.00 0.00 0.00 88 1009.5
20260905120020 15 26 0.0 0.0 0.00 0.00 0.00 88 1009.4
20260905114519 14 344 0.0 0.0 0.00 0.00 0.00 88 1009.2
20260905113018 14 355 0.0 0.0 0.00 0.00 0.00 88 1009.2
20260905111520 14 317 0.0 0.0 0.00 0.00 0.00 88 1009.0
20260905110017 14 292 0.0 0.0 0.00 0.00 0.00 88 1009.0
20260905104514 14 264 0.0 0.0 0.00 0.03 0.00 88 1008.9
20260905103015 13 326 0.0 0.0 0.00 0.03 0.00 89 1008.8
20260905101512 13 334 0.0 0.0 0.00 0.03 0.00 89 1008.8
20260905100017 14 271 0.0 0.0 0.00 0.03 0.00 88 1008.8
20260905094509 14 336 0.0 0.0 0.00 0.03 0.00 89 1008.6
20260905093008 14 360 0.0 17.7 0.00 0.03 0.00 89 1008.5
20260905091511 14 309 0.0 0.0 0.00 0.03 0.00 88 1008.5
20260905090010 14 311 0.0 17.7 0.00 0.03 0.00 88 1008.4
20260905084506 14 355 0.0 12.9 0.00 0.03 0.00 88 1008.3
20260905083006 14 314 4.8 17.7 0.00 0.03 0.00 88 1008.2
20260905081504 14 317 1.6 17.7 0.00 0.03 0.00 89 1008.3
20260905080003 14 319 0.0 0.0 0.00 0.03 0.00 88 1008.4
20260905074503 14 348 0.0 0.0 0.00 0.03 0.00 88 1008.5
20260905073101 15 28 0.0 0.0 0.00 0.03 0.00 88 1008.5
20260905071603 15 347 0.0 0.0 0.00 0.03 0.00 88 1008.6
20260905070059 15 315 0.0 0.0 0.00 0.03 0.00 88 1008.7